Powrót do katalogu

HULIANWANG DIGUI-89

AktywnyŁącznośćLEO
NORAD 65997·PAYLOAD·🇨🇳 China

Wystrzelony Oct 16, 2025 z Wenchang Space Launch Site

Loading…

Następne Przeloty (najbliższe 24 godziny)

TLE

ŚwieżeSource: Space-Track

Epoka: Sep 14, 2026, 14:53 UTC

1 65997U 25231C   26257.62022384 -.00000096  00000-0  59713-4 0  9993
2 65997  49.9954 214.8951 0000320  38.3091 321.7804 13.29327338 44786

Śledź HULIANWANG DIGUI-89 w czasie rzeczywistym z AllMySat

Download on the App Store